Location: Newark
(47.5833°N, 8.1500°E)
Time: 08:37:56
(UTC+00:00)

Vanguard 1 - Pass Details

Date: 04 November 2020
Orbit: 650 x 3833 km, 34.2° (Epoch: 29 November)

Event Time Altitude Azimuth Distance (km) Brightness Sun altitude
Rises 14:02:36 0° 267° (W) 7,589 15.3 16.1°
Reaches altitude 10° 14:07:40 10° 263° (W) 6,767 15.3 15.5°
Maximum altitude 14:29:35 52° 197° (SSW) 4,225 14.0 12.8°
Drops below altitude 10° 14:47:17 10° 128° (SE) 5,580 13.8 10.5°
Sets 14:50:59 0° 123° (ESE) 6,239 14.0 10.0°
